Simultaneous Nadir Overpasses (SNOs) Predictions

Prediction of SNOs between GOES-16 and NOAA-19 Satellite Orbit:

Table of predicted SNOs for the next 14.0 days since TLE Epoch: 10/15/2022
Index Date Time (GOES-16) GOES-16 Lat,Lon NOAA-19 Lat,Lon Distance(km) Time Diff (sec)
1 10/16/2022 01:05:23 0.06, -75.18 0.14, -74.92 30.43 80
2 10/17/2022 00:53:29 0.06, -75.19 0.79, -72.02 361.56 80
3 10/19/2022 13:11:16 -0.06, -75.22 0.31, -76.87 187.95 80
4 10/20/2022 13:02:03 -0.05, -75.23 -0.37, -73.97 143.95 80
5 10/21/2022 12:50:09 -0.05, -75.24 -1.04, -71.07 475.97 80
6 10/23/2022 01:19:54 0.06, -75.23 -0.79, -78.83 411.04 80
7 10/24/2022 01:08:00 0.06, -75.25 -0.13, -75.93 78.82 80
8 10/25/2022 00:58:48 0.05, -75.26 0.59, -73.04 253.63 80
9 10/27/2022 13:16:32 -0.05, -75.32 0.54, -77.88 292.31 80
10 10/28/2022 13:07:18 -0.05, -75.33 -0.15, -74.98 40.35 80
